Time,TemperatureF,DewpointF,PressureIn,WindDirection,WindDirectionDegrees,WindSpeedMPH,WindSpeedGustMPH,Humidity,HourlyPrecipIn,Conditions,Clouds,dailyrainin,SoftwareType,DateUTC
2015-07-02 00:00:00,77.4,73.0,30.12,NE,46,0.0,0.0,85,0.00,,,0.00,weatherlink.com 1.10,2015-07-02 04:00:00,
2015-07-02 00:15:00,77.1,73.0,30.12,NE,46,0.0,0.0,86,0.00,,,0.00,weatherlink.com 1.10,2015-07-02 04:15:00,
2015-07-02 00:30:00,76.4,72.0,30.12,NE,46,0.0,2.0,87,0.00,,,0.00,weatherlink.com 1.10,2015-07-02 04:30:00,
2015-07-02 00:45:00,76.4,72.0,30.12,NE,46,0.0,0.0,87,0.00,,,0.00,weatherlink.com 1.10,2015-07-02 04:45:00,
2015-07-02 01:00:00,76.1,72.0,30.12,NE,46,0.0,1.0,87,0.00,,,0.00,weatherlink.com 1.10,2015-07-02 05:00:00,
2015-07-02 01:15:00,75.7,72.0,30.11,NE,46,0.0,1.0,87,0.00,,,0.00,weatherlink.com 1.10,2015-07-02 05:15:00,
2015-07-02 01:30:00,75.3,72.0,30.11,NE,46,0.0,0.0,88,0.00,,,0.00,weatherlink.com 1.10,2015-07-02 05:30:00,
2015-07-02 01:45:00,74.9,71.0,30.11,NE,46,0.0,0.0,88,0.00,,,0.00,weatherlink.com 1.10,2015-07-02 05:45:00,
2015-07-02 02:00:00,74.2,71.0,30.10,NE,46,0.0,0.0,90,0.00,,,0.00,weatherlink.com 1.10,2015-07-02 06:00:00,
2015-07-02 02:15:00,74.1,71.0,30.09,NE,46,0.0,0.0,90,0.00,,,0.00,weatherlink.com 1.10,2015-07-02 06:15:00,
2015-07-02 02:30:00,74.1,71.0,30.09,NE,46,0.0,2.0,90,0.00,,,0.00,weatherlink.com 1.10,2015-07-02 06:30:00,
2015-07-02 02:45:00,74.1,71.0,30.09,NE,46,0.0,1.0,90,0.00,,,0.00,weatherlink.com 1.10,2015-07-02 06:45:00,
2015-07-02 03:01:00,73.9,71.0,30.08,NE,46,0.0,0.0,89,0.00,,,0.00,weatherlink.com 1.10,2015-07-02 07:01:00,
2015-07-02 03:16:00,73.6,71.0,30.08,NE,46,0.0,0.0,90,0.00,,,0.00,weatherlink.com 1.10,2015-07-02 07:16:00,
2015-07-02 03:31:00,73.1,70.0,30.08,NE,46,0.0,0.0,90,0.00,,,0.00,weatherlink.com 1.10,2015-07-02 07:31:00,
2015-07-02 03:46:00,72.8,70.0,30.07,NE,46,0.0,0.0,91,0.00,,,0.00,weatherlink.com 1.10,2015-07-02 07:46:00,
2015-07-02 04:01:00,72.4,70.0,30.07,NE,46,0.0,0.0,91,0.00,,,0.00,weatherlink.com 1.10,2015-07-02 08:01:00,
2015-07-02 04:16:00,72.3,70.0,30.07,NE,46,0.0,0.0,92,0.00,,,0.00,weatherlink.com 1.10,2015-07-02 08:16:00,
2015-07-02 04:31:00,72.3,70.0,30.07,NE,46,0.0,0.0,92,0.00,,,0.00,weatherlink.com 1.10,2015-07-02 08:31:00,
2015-07-02 04:46:00,72.3,70.0,30.07,NE,46,0.0,0.0,93,0.00,,,0.00,weatherlink.com 1.10,2015-07-02 08:46:00,
2015-07-02 05:01:00,72.2,70.0,30.08,NE,46,0.0,0.0,93,0.00,,,0.00,weatherlink.com 1.10,2015-07-02 09:01:00,
2015-07-02 05:16:00,72.2,70.0,30.08,NE,46,0.0,0.0,92,0.00,,,0.00,weatherlink.com 1.10,2015-07-02 09:16:00,
2015-07-02 06:01:00,72.1,70.0,30.08,NE,46,0.0,0.0,93,0.00,,,0.00,weatherlink.com 1.10,2015-07-02 10:01:00,
2015-07-02 06:16:00,72.1,70.0,30.09,NE,46,0.0,0.0,93,0.00,,,0.00,weatherlink.com 1.10,2015-07-02 10:16:00,
2015-07-02 07:01:00,72.3,70.0,30.09,NE,46,0.0,0.0,93,0.00,,,0.00,weatherlink.com 1.10,2015-07-02 11:01:00,
2015-07-02 07:16:00,72.5,70.0,30.10,NE,46,0.0,0.0,93,0.00,,,0.00,weatherlink.com 1.10,2015-07-02 11:16:00,
2015-07-02 07:46:00,74.6,72.0,30.11,NE,46,0.0,0.0,92,0.00,,,0.00,weatherlink.com 1.10,2015-07-02 11:46:00,
2015-07-02 08:16:00,77.3,73.0,30.12,NE,51,0.0,1.0,87,0.00,,,0.00,weatherlink.com 1.10,2015-07-02 12:16:00,
2015-07-02 08:31:00,79.2,74.0,30.11,ESE,105,1.0,3.0,83,0.00,,,0.00,weatherlink.com 1.10,2015-07-02 12:31:00,
2015-07-02 08:46:00,80.7,74.0,30.12,ESE,109,0.0,3.0,80,0.00,,,0.00,weatherlink.com 1.10,2015-07-02 12:46:00,
2015-07-02 09:01:00,82.2,75.0,30.12,ESE,123,0.0,4.0,79,0.00,,,0.00,weatherlink.com 1.10,2015-07-02 13:01:00,
2015-07-02 09:16:00,83.7,76.0,30.12,ESE,119,2.0,3.0,77,0.00,,,0.00,weatherlink.com 1.10,2015-07-02 13:16:00,
2015-07-02 09:31:00,84.3,76.0,30.12,SE,134,2.0,5.0,77,0.00,,,0.00,weatherlink.com 1.10,2015-07-02 13:31:00,
2015-07-02 09:46:00,85.4,77.0,30.12,SE,135,0.0,4.0,77,0.00,,,0.00,weatherlink.com 1.10,2015-07-02 13:46:00,
2015-07-02 10:02:00,86.2,77.0,30.13,ESE,109,1.0,4.0,75,0.00,,,0.00,weatherlink.com 1.10,2015-07-02 14:02:00,
2015-07-02 10:17:00,86.8,77.0,30.13,ESE,115,0.0,7.0,73,0.00,,,0.00,weatherlink.com 1.10,2015-07-02 14:17:00,
2015-07-02 10:32:00,87.2,78.0,30.13,SE,134,0.0,7.0,73,0.00,,,0.00,weatherlink.com 1.10,2015-07-02 14:32:00,
2015-07-02 10:47:00,88.0,78.0,30.13,ESE,123,2.0,4.0,71,0.00,,,0.00,weatherlink.com 1.10,2015-07-02 14:47:00,
2015-07-02 11:02:00,89.1,77.0,30.13,SSW,194,0.0,6.0,67,0.00,,,0.00,weatherlink.com 1.10,2015-07-02 15:02:00,
2015-07-02 11:17:00,89.8,76.0,30.13,South,190,7.0,7.0,63,0.00,,,0.00,weatherlink.com 1.10,2015-07-02 15:17:00,
2015-07-02 11:32:00,89.3,75.0,30.13,East,81,1.0,8.0,62,0.00,,,0.00,weatherlink.com 1.10,2015-07-02 15:32:00,
2015-07-02 11:47:00,89.7,75.0,30.13,SE,142,1.0,4.0,62,0.00,,,0.00,weatherlink.com 1.10,2015-07-02 15:47:00,
2015-07-02 12:02:00,90.2,75.0,30.13,West,263,1.0,6.0,61,0.00,,,0.00,weatherlink.com 1.10,2015-07-02 16:02:00,
2015-07-02 12:17:00,91.0,72.0,30.13,SSE,165,0.0,8.0,54,0.00,,,0.00,weatherlink.com 1.10,2015-07-02 16:17:00,
2015-07-02 12:32:00,91.6,73.0,30.13,South,182,1.0,6.0,55,0.00,,,0.00,weatherlink.com 1.10,2015-07-02 16:32:00,
2015-07-02 12:47:00,92.7,74.0,30.13,ESE,112,0.0,8.0,54,0.00,,,0.00,weatherlink.com 1.10,2015-07-02 16:47:00,
2015-07-02 13:02:00,92.1,73.0,30.12,South,178,0.0,9.0,54,0.00,,,0.00,weatherlink.com 1.10,2015-07-02 17:02:00,
2015-07-02 13:17:00,91.5,72.0,30.11,West,279,0.0,8.0,53,0.00,,,0.00,weatherlink.com 1.10,2015-07-02 17:17:00,
2015-07-02 13:32:00,91.3,73.0,30.11,NW,313,3.0,8.0,55,0.00,,,0.00,weatherlink.com 1.10,2015-07-02 17:32:00,
2015-07-02 13:47:00,92.0,74.0,30.10,South,181,1.0,10.0,56,0.00,,,0.00,weatherlink.com 1.10,2015-07-02 17:47:00,
2015-07-02 14:02:00,93.2,75.0,30.09,South,172,2.0,6.0,55,0.00,,,0.00,weatherlink.com 1.10,2015-07-02 18:02:00,
2015-07-02 14:17:00,93.1,74.0,30.08,WNW,302,2.0,7.0,54,0.00,,,0.00,weatherlink.com 1.10,2015-07-02 18:17:00,
2015-07-02 14:32:00,93.7,74.0,30.07,SSE,163,0.0,6.0,53,0.00,,,0.00,weatherlink.com 1.10,2015-07-02 18:32:00,
2015-07-02 14:47:00,93.5,74.0,30.06,SW,223,3.0,6.0,54,0.00,,,0.00,weatherlink.com 1.10,2015-07-02 18:47:00,
2015-07-02 15:02:00,94.4,73.0,30.05,SSE,147,3.0,7.0,50,0.00,,,0.00,weatherlink.com 1.10,2015-07-02 19:02:00,
2015-07-02 15:17:00,94.4,72.0,30.05,SW,215,3.0,6.0,49,0.00,,,0.00,weatherlink.com 1.10,2015-07-02 19:17:00,
2015-07-02 15:32:00,94.2,73.0,30.05,WSW,241,2.0,7.0,50,0.00,,,0.00,weatherlink.com 1.10,2015-07-02 19:32:00,
2015-07-02 15:48:00,95.1,71.0,30.05,SE,130,0.0,8.0,46,0.00,,,0.00,weatherlink.com 1.10,2015-07-02 19:48:00,
2015-07-02 16:02:00,95.5,73.0,30.05,West,265,0.0,5.0,48,0.00,,,0.00,weatherlink.com 1.10,2015-07-02 20:02:00,
2015-07-02 16:17:00,95.8,71.0,30.05,SW,218,5.0,5.0,45,0.00,,,0.00,weatherlink.com 1.10,2015-07-02 20:17:00,
2015-07-02 16:32:00,95.1,69.0,30.04,West,275,2.0,6.0,43,0.00,,,0.00,weatherlink.com 1.10,2015-07-02 20:32:00,
2015-07-02 16:47:00,94.7,71.0,30.04,WSW,240,3.0,7.0,47,0.00,,,0.00,weatherlink.com 1.10,2015-07-02 20:47:00,
2015-07-02 17:02:00,91.3,74.0,30.04,WSW,242,4.0,8.0,57,0.00,,,0.00,weatherlink.com 1.10,2015-07-02 21:02:00,
2015-07-02 17:17:00,92.9,75.0,30.05,North,355,5.0,9.0,57,0.00,,,0.00,weatherlink.com 1.10,2015-07-02 21:17:00,
2015-07-02 17:32:00,90.3,75.0,30.05,North,11,5.0,11.0,61,0.00,,,0.00,weatherlink.com 1.10,2015-07-02 21:32:00,
2015-07-02 17:47:00,88.5,76.0,30.05,NNE,19,3.0,12.0,66,0.00,,,0.00,weatherlink.com 1.10,2015-07-02 21:47:00,
2015-07-02 18:02:00,88.4,75.0,30.04,NNE,28,2.0,10.0,65,0.00,,,0.00,weatherlink.com 1.10,2015-07-02 22:02:00,
2015-07-02 18:17:00,88.7,76.0,30.05,NE,37,2.0,6.0,67,0.00,,,0.00,weatherlink.com 1.10,2015-07-02 22:17:00,